Date String (YYYY-MM-DD hh:mm:ss) UTC,Instrument flags,Ambient pressure (hPa),Sample flow (lpm),Bypass flow (lpm),Sample temperature (°C),Ambient temperature (°C),ASC tube jacket temperature (°C),LED temperature (°C),Box temperature (°C),Sample RH (%),Span deviation,Mass concentration (μg/m³),Mass concentration (μg/m³),Mass concentration (μg/m³)
DateTimeUTC,F1_M11,P_M11,Q1_M11,Q2_M11,T1_M11,T2_M11,T3_M11,T4_M11,T5_M11,U1_M11,ZSPAN_M11,X0_M11,X2_M11,X1_M11
2022-06-23 20:00:00,,0825.3,5.00,0.00,28.8,27.0,00.0,37.6,30.7,11.1,0000.0,0011.65,0005.89,0005.10
2022-06-23 20:01:00,,0825.3,5.00,0.00,28.8,27.2,00.0,37.6,30.7,10.9,0000.0,0011.67,0005.91,0005.11
2022-06-23 20:02:00,,0825.3,5.00,0.00,28.8,27.3,00.0,37.6,30.8,10.8,0000.0,0012.11,0005.91,0005.12
2022-06-23 20:03:00,,0825.3,4.99,0.00,28.9,27.5,00.0,37.6,30.8,10.8,0000.0,0012.83,0005.92,0005.14
2022-06-23 20:04:00,,0825.3,5.01,0.00,28.9,27.7,00.0,37.6,30.9,11.0,0000.0,0012.89,0005.90,0005.16
2022-06-23 20:05:00,,0825.2,5.00,0.00,28.9,27.9,00.0,37.6,31.0,11.3,0000.0,0012.37,0005.89,0005.16
2022-06-23 20:06:00,,0825.2,5.00,0.00,29.0,28.0,00.0,37.7,31.0,11.9,0000.0,0012.42,0005.90,0005.16
2022-06-23 20:07:00,,0825.2,5.00,0.00,29.0,27.4,00.0,37.6,30.8,11.9,0000.0,0012.61,0005.92,0005.14
2022-06-23 20:08:00,,0825.2,5.01,0.00,28.9,27.0,00.0,37.6,30.7,12.4,0000.0,0012.81,0005.95,0005.10
2022-06-23 20:09:00,,0825.2,4.99,0.00,28.9,27.0,00.0,37.6,30.7,11.7,0000.0,0013.55,0005.95,0005.08
2022-06-23 20:10:00,,0825.2,4.99,0.00,28.8,27.1,00.0,37.6,30.7,12.0,0000.0,0013.90,0005.93,0005.04
2022-06-23 20:11:00,,0825.2,5.00,0.00,28.8,27.3,00.0,37.6,30.7,11.9,0000.0,0014.12,0005.91,0005.01
2022-06-23 20:12:00,,0825.2,5.01,0.00,28.9,27.4,00.0,37.6,30.8,12.0,0000.0,0014.81,0005.91,0004.98
2022-06-23 20:13:00,,0825.1,5.00,0.00,28.9,27.6,00.0,37.6,30.9,12.5,0000.0,0014.50,0005.91,0004.95
2022-06-23 20:14:00,,0825.1,5.00,0.00,28.9,27.8,00.0,37.6,30.9,12.3,0000.0,0014.16,0005.88,0004.91
2022-06-23 20:15:00,,0825.1,5.01,0.00,29.0,28.0,00.0,37.7,31.0,12.5,0000.0,0015.71,0005.89,0004.86
2022-06-23 20:16:00,,0825.1,5.00,0.00,29.0,27.8,00.0,37.6,31.0,12.2,0000.0,0016.11,0005.91,0004.82
2022-06-23 20:17:00,,0825.1,5.00,0.00,28.9,27.1,00.0,37.6,30.8,12.3,0000.0,0015.59,0005.85,0004.78
2022-06-23 20:18:00,,0825.1,5.01,0.00,28.9,26.9,00.0,37.6,30.7,12.6,0000.0,0015.03,0005.83,0004.78
2022-06-23 20:19:00,,0825.1,5.01,0.00,28.9,26.9,00.0,37.6,30.7,12.8,0000.0,0015.42,0005.83,0004.78
2022-06-23 20:20:00,,0825.0,5.00,0.00,28.8,27.1,00.0,37.6,30.7,12.5,0000.0,0014.82,0005.82,0004.77
2022-06-23 20:21:00,,0825.1,4.99,0.00,28.9,27.3,00.0,37.6,30.8,12.2,0000.0,0015.25,0005.82,0004.78
2022-06-23 20:22:00,,0825.0,5.00,0.00,28.9,27.5,00.0,37.6,30.8,12.3,0000.0,0015.53,0005.86,0004.79
2022-06-23 20:23:00,,0825.1,5.00,0.00,28.9,27.7,00.0,37.6,30.9,12.3,0000.0,0014.99,0005.87,0004.80
2022-06-23 20:24:00,,0825.0,5.01,0.00,28.9,27.9,00.0,37.6,31.0,12.6,0000.0,0015.35,0005.85,0004.82
2022-06-23 20:25:00,,0825.0,4.99,0.00,29.0,28.0,00.0,37.7,31.0,13.3,0000.0,0015.05,0005.84,0004.84
2022-06-23 20:26:00,,0825.0,5.00,0.00,29.0,27.6,00.0,37.6,30.9,12.4,0000.0,0013.49,0005.82,0004.87
2022-06-23 20:27:00,,0825.0,5.00,0.00,28.9,27.1,00.0,37.6,30.7,12.3,0000.0,0013.11,0005.81,0004.87
2022-06-23 20:28:00,,0824.9,5.00,0.00,28.9,27.0,00.0,37.6,30.7,12.4,0000.0,0014.54,0005.82,0004.87
2022-06-23 20:29:00,,0824.9,5.01,0.00,28.9,27.1,00.0,37.6,30.7,12.1,0000.0,0015.29,0005.80,0004.86
2022-06-23 20:30:00,,0824.9,5.00,0.00,28.9,27.2,00.0,37.6,30.8,12.3,0000.0,0015.69,0005.82,0004.84
2022-06-23 20:31:00,,0824.8,5.01,0.00,28.9,27.4,00.0,37.6,30.8,12.6,0000.0,0015.83,0005.82,0004.83
2022-06-23 20:32:00,,0824.9,5.00,0.00,28.9,27.6,00.0,37.6,30.9,12.7,0000.0,0016.56,0005.83,0004.83
2022-06-23 20:33:00,,0824.9,5.00,0.00,28.9,27.8,00.0,37.7,31.0,12.3,0000.0,0016.90,0005.80,0004.82
2022-06-23 20:34:00,,0824.9,5.00,0.00,29.0,28.0,00.0,37.7,31.0,12.0,0000.0,0017.21,0005.79,0004.82
2022-06-23 20:35:00,,0824.9,5.01,0.00,29.0,28.0,00.0,37.7,31.0,12.0,0000.0,0017.26,0005.83,0004.79
2022-06-23 20:36:00,,0824.9,5.00,0.00,29.0,27.3,00.0,37.6,30.9,12.4,0000.0,0018.05,0005.85,0004.77
2022-06-23 20:37:00,,0824.9,5.00,0.00,28.9,27.0,00.0,37.6,30.8,12.5,0000.0,0017.84,0005.82,0004.76
2022-06-23 20:38:00,,0824.9,5.01,0.00,28.9,27.1,00.0,37.6,30.8,12.1,0000.0,0017.96,0005.84,0004.76
2022-06-23 20:39:00,,0824.9,5.00,0.00,28.9,27.2,00.0,37.6,30.8,12.0,0000.0,0016.87,0005.85,0004.77
2022-06-23 20:40:00,,0824.9,5.01,0.00,28.9,27.4,00.0,37.6,30.8,12.3,0000.0,0016.27,0005.88,0004.77
2022-06-23 20:41:00,,0824.9,5.00,0.00,28.9,27.6,00.0,37.6,30.9,12.1,0000.0,0015.54,0005.84,0004.77
2022-06-23 20:42:00,,0824.9,5.00,0.00,29.0,27.8,00.0,37.7,30.9,12.2,0000.0,0015.19,0005.82,0004.79
2022-06-23 20:43:00,,0824.9,5.00,0.00,29.0,27.9,00.0,37.7,31.0,12.4,0000.0,0013.71,0005.79,0004.79
2022-06-23 20:44:00,,0824.9,5.00,0.00,29.0,27.9,00.0,37.7,31.0,11.9,0000.0,0013.09,0005.76,0004.79
2022-06-23 20:45:00,,0824.9,5.00,0.00,29.0,27.4,00.0,37.6,30.9,11.8,0000.0,0012.94,0005.79,0004.79
2022-06-23 20:46:00,,0824.9,5.00,0.00,28.9,27.0,00.0,37.6,30.8,12.0,0000.0,0013.00,0005.79,0004.82
2022-06-23 20:47:00,,0824.9,5.00,0.00,28.9,27.1,00.0,37.6,30.7,12.2,0000.0,0013.22,0005.77,0004.84
2022-06-23 20:48:00,,0824.9,5.01,0.00,28.9,27.2,00.0,37.6,30.7,12.1,0000.0,0014.31,0005.82,0004.87
2022-06-23 20:49:00,,0824.9,5.00,0.00,28.9,27.3,00.0,37.6,30.8,11.5,0000.0,0014.55,0005.87,0004.92
2022-06-23 20:50:00,,0824.9,5.00,0.00,28.9,27.5,00.0,37.6,30.9,11.5,0000.0,0015.20,0005.93,0004.97
2022-06-23 20:51:00,,0824.9,5.00,0.00,28.9,27.7,00.0,37.7,30.9,11.5,0000.0,0015.90,0005.97,0005.02
2022-06-23 20:52:00,,0824.9,4.99,0.00,29.0,27.9,00.0,37.7,31.0,11.9,0000.0,0016.88,0006.00,0005.07
2022-06-23 20:53:00,,0824.9,5.01,0.00,29.0,28.1,00.0,37.7,31.1,11.6,0000.0,0017.23,0006.07,0005.10
2022-06-23 20:54:00,,0824.9,5.01,0.00,29.1,27.8,00.0,37.7,31.0,12.2,0000.0,0017.60,0006.17,0005.14
2022-06-23 20:55:00,,0824.8,5.01,0.00,29.0,27.2,00.0,37.6,30.8,12.0,0000.0,0017.57,0006.23,0005.18
2022-06-23 20:56:00,,0824.9,5.00,0.00,28.9,27.1,00.0,37.6,30.8,12.3,0000.0,0018.20,0006.24,0005.22
2022-06-23 20:57:00,,0824.8,4.98,0.00,28.9,27.1,00.0,37.6,30.8,12.2,0000.0,0019.13,0006.23,0005.23
2022-06-23 20:58:00,,0824.9,5.02,0.00,28.9,27.3,00.0,37.6,30.8,11.8,0000.0,0018.39,0006.29,0005.26
2022-06-23 20:59:00,,0824.8,5.00,0.00,28.9,27.5,00.0,37.7,30.8,11.6,0000.0,0017.20,0006.29,0005.27
